Regional Weather Roundup
Issued by NWS

Home | Current Version | Previous Version | Graphics & Text | Print | Product List | Glossary On
Versions: 1 2 3 4 5 6 7 8 9 10 11 12 13 14 15 16 17 18 19 20 21 22 23 24 25 26 27 28 29 30 31 32 33 34 35 36 37 38 39 40 41 42 43 44 45 46 47 48 49 50
000
ASUS43 KBIS 050110
RWRND

NORTH DAKOTA REGIONAL WEATHER ROUNDUP
NATIONAL WEATHER SERVICE BISMARCK ND
800 PM CDT FRI SEP 04 2015

NOTE: "FAIR" INDICATES FEW OR NO CLOUDS BELOW 12,000 FEET WITH NO
SIGNIFICANT WEATHER AND/OR OBSTRUCTIONS TO VISIBILITY.


NDZ001>003-009>011-017-050200-
NORTHWEST NORTH DAKOTA

CITY           SKY/WX    TMP DP  RH WIND       PRES   REMARKS
WILLISTON      PTCLDY    71  57  61 NE13      29.88R
MINOT          CLOUDY    66  57  72 N14       29.87R
MINOT AFB      CLOUDY    65  62  87 N15       29.87R
$$

NDZ018>021-031>035-040>046-050200-
SOUTHWEST NORTH DAKOTA

CITY           SKY/WX    TMP DP  RH WIND       PRES   REMARKS
BISMARCK       CLEAR     81  67  62 E5        29.79R
DICKINSON      CLEAR     73  62  68 NE18      29.83R
GARRISON         N/A     69  60  73 N8        29.86R
HETTINGER ARPT CLEAR     84  54  35 E7        29.81R
$$

NDZ004>008-012>016-024-026-027-054-050200-
NORTHEAST NORTH DAKOTA

CITY           SKY/WX    TMP DP  RH WIND       PRES   REMARKS
GRAND FORKS    MOCLDY    74  68  81 S5        29.82R
GRND FRKS AFB  MOCLDY    70  67  89 S1        29.84R
DEVILS LAKE    PTCLDY    72  63  73 NE3       29.83R
$$

NDZ022-023-025-028>030-036>039-047>053-050200-
SOUTHEAST NORTH DAKOTA

CITY           SKY/WX    TMP DP  RH WIND       PRES   REMARKS
FARGO          CLOUDY    76  73  91 E6        29.82S
JAMESTOWN      CLEAR     75  69  81 SE12      29.82S
$$



USA.gov is the U.S. government's official web portal to all federal, state and local government web resources and services.